QPF
0.00 0.00 0.01 0.01 0.01 0.01 0.01 0.01 0.01 0.01 0.01 0.01 0.01 0.01 0.01 0.01 0.01 0.01 0.01 0.01 0.01 0.01 0.01 0.01 0.01 0.01 0.01 0.01 0.01 0.01 0.00 0.00 0.00 0.00 0.01 0.01 0.01 0.01 0.01 0.01 0.00 0.00 0.01
0.00 0.00 0.00 0.01 0.01 0.01 0.01 0.01 0.01 0.01 0.00 0.01 0.00 0.00 0.01 0.01 0.01 0.01 0.00 0.00 0.00 0.01 0.00 0.00 0.00 0.00 0.00 0.00 0.00 0.00 0.00 0.00 0.00 0.00 0.00 0.00 0.01 0.01 0.01 0.01 0.01 0.01 0.01
0.00 0.00 0.00 0.01 0.01 0.01 0.01 0.01 0.01 0.01 0.00 0.00 0.00 0.00 0.00 0.01 0.01 0.01 0.00 0.00 0.00 0.00 0.00 0.00 0.00 0.00 0.00 0.00 0.00 0.00 0.00 0.00 0.00 0.00 0.00 0.00 0.00 0.01 0.01 0.00 0.00 0.00 0.01
0.00 0.00 0.00 0.01 0.01 0.01 0.01 0.01 0.00 0.00 0.00 0.00 0.00 0.00 0.00 0.00 0.00 0.00 0.00 0.00 0.00 0.00 0.00 0.00 0.00 0.00 0.00 0.00 0.00 0.00 0.00 0.00 0.00 0.00 0.00 0.00 0.00 0.00 0.00 0.00 0.00 0.00 0.00
0.00 0.00 0.00 0.01 0.01 0.01 0.01 0.01 0.00 0.00 0.00 0.00 0.00 0.00 0.00 0.00 0.00 0.00 0.00 0.00 0.00 0.00 0.00 0.00 0.00 0.00 0.00 0.00 0.00 0.00 0.00 0.00 0.00 0.00 0.00 0.00 0.00 0.00 0.00 0.00 0.00 0.00 0.00
0.00 0.00 0.00 0.00 0.01 0.01 0.01 0.00 0.00 0.00 0.00 0.00 0.00 0.00 0.00 0.00 0.00 0.00 0.00 0.00 0.00 0.00 0.00 0.00 0.00 0.00 0.00 0.00 0.00 0.00 0.00 0.00 0.00 0.00 0.00 0.00 0.00 0.00 0.00 0.00 0.00 0.00 0.00
0.00 0.00 0.00 0.00 0.00 0.00 0.00 0.00 0.00 0.00 0.00 0.00 0.00 0.00 0.00 0.00 0.00 0.00 0.00 0.00 0.00 0.00 0.00 0.00 0.00 0.00 0.00 0.00 0.00 0.00 0.00 0.00 0.00 0.00 0.00 0.00 0.00 0.00 0.00 0.00 0.00 0.00 0.00
0.00 0.00 0.00 0.00 0.00 0.00 0.00 0.00 0.00 0.00 0.00 0.00 0.00 0.00 0.00 0.00 0.00 0.00 0.00 0.00 0.00 0.00 0.00 0.00 0.00 0.00 0.00 0.00 0.00 0.00 0.00 0.00 0.00 0.00 0.00 0.00 0.00 0.00 0.00 0.00 0.00 0.00 0.00
0.00 0.00 0.00 0.00 0.00 0.00 0.00 0.00 0.00 0.00 0.00 0.00 0.00 0.00 0.00 0.00 0.00 0.00 0.00 0.00 0.00 0.00 0.00 0.00 0.00 0.00 0.00 0.00 0.00 0.00 0.00 0.00 0.00 0.00 0.00 0.00 0.00 0.00 0.00 0.00 0.00 0.00 0.01
0.00 0.00 0.00 0.00 0.00 0.00 0.00 0.00 0.00 0.00 0.00 0.00 0.00 0.00 0.00 0.00 0.00 0.00 0.00 0.00 0.00 0.00 0.00 0.00 0.00 0.00 0.00 0.00 0.00 0.00 0.00 0.00 0.00 0.00 0.00 0.00 0.00 0.00 0.00 0.00 0.00 0.01 0.01
0.00 0.00 0.00 0.00 0.00 0.00 0.00 0.00 0.00 0.00 0.00 0.00 0.00 0.00 0.00 0.00 0.00 0.00 0.00 0.00 0.00 0.00 0.00 0.00 0.00 0.00 0.00 0.00 0.00 0.00 0.00 0.00 0.00 0.00 0.00 0.00 0.00 0.00 0.00 0.00 0.00 0.01 0.01
0.00 0.00 0.00 0.00 0.00 0.00 0.00 0.00 0.00 0.00 0.00 0.00 0.00 0.00 0.00 0.00 0.00 0.00 0.00 0.00 0.00 0.00 0.00 0.00 0.00 0.00 0.00 0.00 0.00 0.00 0.00 0.00 0.00 0.00 0.00 0.00 0.00 0.00 0.00 0.00 0.00 0.01 0.01
0.00 0.00 0.00 0.00 0.00 0.00 0.00 0.00 0.00 0.00 0.00 0.00 0.00 0.00 0.00 0.00 0.00 0.00 0.00 0.00 0.00 0.00 0.00 0.00 0.00 0.00 0.00 0.00 0.00 0.00 0.00 0.00 0.00 0.00 0.00 0.00 0.00 0.00 0.00 0.00 0.00 0.00 0.01
0.00 0.00 0.00 0.00 0.00 0.00 0.00 0.00 0.00 0.00 0.00 0.00 0.00 0.00 0.00 0.00 0.00 0.00 0.00 0.00 0.00 0.00 0.00 0.00 0.00 0.00 0.00 0.00 0.00 0.00 0.00 0.00 0.00 0.00 0.00 0.00 0.00 0.00 0.00 0.00 0.00 0.00 0.00
0.00 0.00 0.00 0.00 0.00 0.00 0.00 0.00 0.00 0.00 0.00 0.00 0.00 0.00 0.00 0.00 0.00 0.00 0.00 0.00 0.00 0.00 0.00 0.00 0.00 0.00 0.00 0.00 0.00 0.00 0.00 0.00 0.00 0.00 0.00 0.00 0.00 0.00 0.00 0.00 0.00 0.00 0.00
0.00 0.00 0.00 0.00 0.00 0.00 0.00 0.00 0.00 0.00 0.00 0.00 0.00 0.00 0.00 0.00 0.00 0.00 0.00 0.00 0.00 0.00 0.00 0.00 0.00 0.00 0.00 0.00 0.00 0.00 0.00 0.00 0.00 0.00 0.00 0.00 0.00 0.00 0.00 0.00 0.00 0.00 0.00
0.00 0.00 0.00 0.00 0.00 0.00 0.00 0.00 0.00 0.00 0.00 0.00 0.00 0.00 0.00 0.00 0.00 0.00 0.00 0.00 0.00 0.00 0.00 0.00 0.00 0.00 0.00 0.00 0.00 0.00 0.00 0.00 0.00 0.00 0.00 0.00 0.00 0.00 0.00 0.00 0.00 0.00 0.00
0.00 0.00 0.00 0.00 0.00 0.00 0.00 0.00 0.00 0.00 0.00 0.00 0.00 0.00 0.00 0.00 0.00 0.00 0.00 0.00 0.00 0.00 0.00 0.00 0.00 0.00 0.00 0.00 0.00 0.00 0.00 0.00 0.00 0.00 0.00 0.00 0.00 0.00 0.00 0.00 0.00 0.00 0.00
0.00 0.00 0.00 0.00 0.00 0.00 0.00 0.00 0.00 0.00 0.00 0.00 0.00 0.00 0.00 0.00 0.00 0.00 0.00 0.00 0.00 0.00 0.00 0.00 0.00 0.00 0.00 0.00 0.00 0.00 0.00 0.00 0.00 0.00 0.00 0.00 0.00 0.00 0.00 0.00 0.00 0.00 0.00
0.00 0.00 0.00 0.00 0.00 0.00 0.00 0.00 0.00 0.00 0.00 0.00 0.00 0.00 0.00 0.00 0.00 0.00 0.00 0.00 0.00 0.00 0.00 0.00 0.00 0.00 0.00 0.00 0.00 0.00 0.00 0.00 0.00 0.00 0.00 0.00 0.00 0.00 0.00 0.00 0.00 0.00 0.00
0.00 0.00 0.00 0.00 0.00 0.00 0.00 0.00 0.00 0.00 0.00 0.00 0.00 0.00 0.00 0.00 0.00 0.00 0.00 0.00 0.00 0.00 0.00 0.00 0.00 0.00 0.00 0.00 0.00 0.00 0.00 0.00 0.00 0.00 0.00 0.00 0.00 0.00 0.00 0.00 0.00 0.00 0.00
0.00 0.00 0.00 0.00 0.00 0.00 0.00 0.00 0.00 0.00 0.00 0.00 0.00 0.00 0.00 0.00 0.00 0.00 0.00 0.00 0.00 0.00 0.00 0.00 0.00 0.00 0.00 0.00 0.00 0.00 0.00 0.00 0.00 0.00 0.00 0.00 0.00 0.00 0.00 0.00 0.00 0.00 0.00
0.00 0.00 0.00 0.00 0.00 0.00 0.00 0.00 0.00 0.00 0.00 0.00 0.00 0.00 0.00 0.00 0.00 0.00 0.00 0.00 0.00 0.00 0.00 0.00 0.00 0.00 0.00 0.00 0.00 0.00 0.00 0.00 0.00 0.00 0.00 0.00 0.00 0.00 0.00 0.00 0.00 0.00 0.00
0.00 0.00 0.00 0.00 0.00 0.00 0.00 0.00 0.00 0.00 0.00 0.00 0.00 0.00 0.00 0.00 0.00 0.00 0.00 0.00 0.00 0.00 0.00 0.00 0.00 0.00 0.00 0.00 0.00 0.00 0.00 0.00 0.00 0.00 0.00 0.00 0.00 0.00 0.00 0.00 0.00 0.00 0.00
0.00 0.00 0.00 0.00 0.00 0.00 0.00 0.00 0.00 0.00 0.00 0.00 0.00 0.00 0.00 0.00 0.00 0.00 0.00 0.00 0.00 0.00 0.00 0.00 0.00 0.00 0.00 0.00 0.00 0.00 0.00 0.00 0.00 0.00 0.00 0.00 0.00 0.00 0.00 0.00 0.00 0.00 0.00
0.00 0.00 0.00 0.00 0.00 0.00 0.00 0.00 0.00 0.00 0.00 0.00 0.00 0.00 0.00 0.00 0.00 0.00 0.00 0.00 0.00 0.00 0.00 0.00 0.00 0.00 0.00 0.00 0.00 0.00 0.00 0.00 0.00 0.00 0.00 0.00 0.00 0.00 0.00 0.00 0.00 0.00 0.00
MSLP
1016.60 1016.44 1016.41 1016.55 1016.86 1017.29 1017.75 1018.16 1018.45 1018.60 1018.62 1018.55 1018.46 1018.41 1018.42 1018.52 1018.68 1018.86 1019.02 1019.12 1019.16 1019.14 1019.09 1019.04 1019.01 1019.01 1019.04 1019.08 1019.11 1019.12 1019.10 1019.04 1018.97 1018.89 1018.81 1018.76 1018.71 1018.66 1018.61 1018.54 1018.45 1018.34 1018.23
1016.21 1016.11 1016.15 1016.37 1016.76 1017.24 1017.75 1018.20 1018.53 1018.71 1018.75 1018.72 1018.66 1018.65 1018.71 1018.85 1019.05 1019.26 1019.45 1019.59 1019.65 1019.65 1019.61 1019.57 1019.53 1019.52 1019.53 1019.55 1019.57 1019.57 1019.54 1019.49 1019.44 1019.38 1019.33 1019.29 1019.25 1019.20 1019.13 1019.04 1018.93 1018.80 1018.68
1015.83 1015.80 1015.91 1016.20 1016.65 1017.20 1017.76 1018.25 1018.62 1018.84 1018.92 1018.93 1018.92 1018.95 1019.05 1019.22 1019.44 1019.67 1019.86 1020.00 1020.07 1020.08 1020.05 1020.01 1019.97 1019.96 1019.96 1019.97 1019.97 1019.97 1019.96 1019.93 1019.90 1019.88 1019.85 1019.82 1019.78 1019.72 1019.63 1019.51 1019.37 1019.22 1019.08
1015.52 1015.55 1015.73 1016.09 1016.60 1017.20 1017.80 1018.33 1018.72 1018.98 1019.11 1019.17 1019.20 1019.27 1019.40 1019.58 1019.80 1020.02 1020.21 1020.34 1020.40 1020.41 1020.38 1020.35 1020.32 1020.30 1020.30 1020.32 1020.33 1020.34 1020.34 1020.34 1020.35 1020.35 1020.34 1020.32 1020.27 1020.18 1020.05 1019.89 1019.72 1019.54 1019.39
1015.31 1015.41 1015.65 1016.07 1016.63 1017.25 1017.87 1018.41 1018.83 1019.11 1019.28 1019.37 1019.46 1019.56 1019.71 1019.91 1020.12 1020.32 1020.48 1020.58 1020.63 1020.63 1020.61 1020.58 1020.56 1020.56 1020.58 1020.61 1020.63 1020.66 1020.69 1020.71 1020.74 1020.75 1020.76 1020.73 1020.66 1020.53 1020.37 1020.17 1019.95 1019.75 1019.59
1015.22 1015.38 1015.69 1016.15 1016.73 1017.36 1017.97 1018.50 1018.91 1019.20 1019.39 1019.52 1019.65 1019.79 1019.97 1020.17 1020.37 1020.55 1020.68 1020.75 1020.78 1020.77 1020.75 1020.74 1020.74 1020.76 1020.80 1020.85 1020.89 1020.94 1020.98 1021.02 1021.05 1021.08 1021.07 1021.02 1020.92 1020.76 1020.55 1020.31 1020.07 1019.85 1019.69
1015.25 1015.47 1015.82 1016.31 1016.89 1017.50 1018.07 1018.56 1018.94 1019.22 1019.42 1019.59 1019.76 1019.94 1020.15 1020.37 1020.57 1020.73 1020.83 1020.88 1020.89 1020.88 1020.86 1020.86 1020.89 1020.93 1020.99 1021.05 1021.11 1021.16 1021.21 1021.25 1021.29 1021.30 1021.27 1021.20 1021.07 1020.87 1020.63 1020.36 1020.10 1019.87 1019.71
1015.35 1015.62 1016.01 1016.51 1017.08 1017.64 1018.15 1018.58 1018.91 1019.17 1019.38 1019.58 1019.80 1020.04 1020.29 1020.54 1020.75 1020.90 1020.99 1021.01 1021.01 1020.98 1020.97 1020.98 1021.02 1021.08 1021.16 1021.23 1021.29 1021.34 1021.38 1021.41 1021.42 1021.42 1021.38 1021.28 1021.12 1020.90 1020.63 1020.35 1020.08 1019.86 1019.71
1015.45 1015.77 1016.20 1016.71 1017.24 1017.75 1018.19 1018.55 1018.83 1019.07 1019.29 1019.53 1019.80 1020.10 1020.41 1020.70 1020.93 1021.08 1021.16 1021.17 1021.14 1021.11 1021.09 1021.11 1021.16 1021.23 1021.31 1021.37 1021.42 1021.46 1021.48 1021.49 1021.49 1021.46 1021.40 1021.29 1021.13 1020.90 1020.63 1020.35 1020.09 1019.88 1019.75
1015.50 1015.87 1016.33 1016.83 1017.33 1017.79 1018.17 1018.47 1018.71 1018.93 1019.17 1019.46 1019.79 1020.16 1020.53 1020.86 1021.12 1021.28 1021.35 1021.34 1021.30 1021.25 1021.23 1021.25 1021.30 1021.37 1021.43 1021.49 1021.52 1021.53 1021.52 1021.51 1021.49 1021.45 1021.39 1021.29 1021.13 1020.92 1020.67 1020.40 1020.16 1019.97 1019.85
1015.45 1015.86 1016.34 1016.85 1017.34 1017.75 1018.09 1018.35 1018.57 1018.79 1019.06 1019.40 1019.80 1020.23 1020.65 1021.02 1021.30 1021.47 1021.53 1021.51 1021.45 1021.40 1021.37 1021.37 1021.42 1021.48 1021.53 1021.57 1021.57 1021.56 1021.52 1021.49 1021.46 1021.42 1021.37 1021.29 1021.16 1020.99 1020.77 1020.54 1020.32 1020.15 1020.03
1015.24 1015.70 1016.21 1016.74 1017.22 1017.62 1017.94 1018.19 1018.41 1018.66 1018.97 1019.36 1019.81 1020.29 1020.76 1021.15 1021.44 1021.61 1021.66 1021.63 1021.57 1021.50 1021.47 1021.47 1021.51 1021.57 1021.61 1021.62 1021.60 1021.56 1021.51 1021.46 1021.42 1021.40 1021.37 1021.33 1021.25 1021.12 1020.95 1020.76 1020.57 1020.41 1020.29
1014.89 1015.38 1015.93 1016.48 1016.97 1017.39 1017.72 1017.99 1018.25 1018.53 1018.89 1019.32 1019.82 1020.33 1020.81 1021.22 1021.51 1021.66 1021.71 1021.67 1021.61 1021.55 1021.52 1021.54 1021.58 1021.63 1021.67 1021.67 1021.64 1021.57 1021.50 1021.45 1021.41 1021.40 1021.41 1021.40 1021.38 1021.31 1021.20 1021.05 1020.88 1020.72 1020.60
1014.39 1014.91 1015.49 1016.07 1016.60 1017.05 1017.43 1017.75 1018.06 1018.40 1018.80 1019.27 1019.78 1020.31 1020.79 1021.18 1021.45 1021.60 1021.64 1021.61 1021.56 1021.53 1021.53 1021.57 1021.63 1021.70 1021.74 1021.74 1021.70 1021.63 1021.55 1021.48 1021.45 1021.46 1021.49 1021.53 1021.55 1021.53 1021.47 1021.36 1021.22 1021.07 1020.93
1013.77 1014.32 1014.92 1015.53 1016.11 1016.62 1017.06 1017.45 1017.83 1018.23 1018.68 1019.17 1019.68 1020.19 1020.64 1021.01 1021.26 1021.40 1021.45 1021.45 1021.44 1021.45 1021.50 1021.59 1021.69 1021.79 1021.85 1021.86 1021.82 1021.75 1021.67 1021.60 1021.57 1021.58 1021.63 1021.70 1021.76 1021.78 1021.76 1021.68 1021.56 1021.41 1021.26
1013.06 1013.61 1014.23 1014.88 1015.50 1016.08 1016.60 1017.09 1017.55 1018.01 1018.49 1018.99 1019.49 1019.96 1020.38 1020.70 1020.94 1021.08 1021.16 1021.20 1021.26 1021.34 1021.46 1021.61 1021.78 1021.92 1022.02 1022.05 1022.03 1021.96 1021.88 1021.81 1021.78 1021.79 1021.84 1021.92 1021.99 1022.04 1022.04 1021.99 1021.89 1021.75 1021.59
1012.29 1012.82 1013.45 1014.12 1014.80 1015.45 1016.06 1016.64 1017.19 1017.71 1018.23 1018.73 1019.21 1019.64 1020.01 1020.30 1020.53 1020.68 1020.81 1020.92 1021.06 1021.23 1021.44 1021.67 1021.90 1022.09 1022.23 1022.30 1022.30 1022.26 1022.19 1022.12 1022.08 1022.08 1022.12 1022.19 1022.26 1022.31 1022.32 1022.29 1022.20 1022.07 1021.91
1011.47 1011.98 1012.59 1013.28 1014.01 1014.74 1015.45 1016.12 1016.75 1017.34 1017.89 1018.39 1018.85 1019.24 1019.57 1019.85 1020.07 1020.26 1020.45 1020.64 1020.87 1021.14 1021.43 1021.74 1022.04 1022.29 1022.48 1022.59 1022.63 1022.61 1022.56 1022.50 1022.46 1022.45 1022.47 1022.51 1022.56 1022.60 1022.60 1022.57 1022.50 1022.39 1022.24
1010.62 1011.09 1011.69 1012.39 1013.16 1013.96 1014.76 1015.53 1016.25 1016.91 1017.49 1018.00 1018.44 1018.81 1019.12 1019.39 1019.63 1019.87 1020.12 1020.40 1020.72 1021.08 1021.45 1021.83 1022.18 1022.48 1022.71 1022.86 1022.95 1022.97 1022.96 1022.93 1022.89 1022.88 1022.87 1022.88 1022.89 1022.90 1022.89 1022.85 1022.78 1022.69 1022.55
1009.75 1010.18 1010.76 1011.47 1012.27 1013.14 1014.02 1014.89 1015.69 1016.42 1017.05 1017.57 1018.01 1018.37 1018.68 1018.96 1019.24 1019.53 1019.85 1020.22 1020.62 1021.04 1021.47 1021.89 1022.28 1022.62 1022.89 1023.09 1023.22 1023.31 1023.35 1023.36 1023.35 1023.33 1023.31 1023.29 1023.26 1023.22 1023.18 1023.12 1023.05 1022.96 1022.85
1008.89 1009.29 1009.85 1010.55 1011.39 1012.31 1013.27 1014.22 1015.11 1015.90 1016.58 1017.14 1017.59 1017.96 1018.29 1018.59 1018.91 1019.26 1019.65 1020.09 1020.54 1021.01 1021.48 1021.92 1022.32 1022.68 1022.98 1023.22 1023.42 1023.57 1023.68 1023.75 1023.79 1023.79 1023.76 1023.71 1023.64 1023.55 1023.46 1023.37 1023.29 1023.20 1023.09
1008.08 1008.45 1008.99 1009.69 1010.55 1011.51 1012.53 1013.55 1014.51 1015.37 1016.10 1016.70 1017.18 1017.58 1017.93 1018.28 1018.65 1019.06 1019.51 1019.99 1020.48 1020.98 1021.45 1021.89 1022.29 1022.64 1022.96 1023.25 1023.51 1023.74 1023.93 1024.08 1024.18 1024.21 1024.19 1024.12 1024.01 1023.87 1023.73 1023.59 1023.48 1023.37 1023.27
1007.37 1007.73 1008.24 1008.94 1009.80 1010.78 1011.84 1012.91 1013.93 1014.84 1015.62 1016.25 1016.78 1017.22 1017.62 1018.01 1018.43 1018.89 1019.39 1019.90 1020.42 1020.91 1021.37 1021.79 1022.17 1022.52 1022.85 1023.17 1023.49 1023.80 1024.09 1024.32 1024.49 1024.58 1024.57 1024.49 1024.35 1024.16 1023.97 1023.78 1023.62 1023.49 1023.37
1006.80 1007.15 1007.65 1008.33 1009.17 1010.15 1011.22 1012.31 1013.36 1014.30 1015.12 1015.80 1016.37 1016.85 1017.30 1017.75 1018.22 1018.73 1019.26 1019.81 1020.33 1020.82 1021.26 1021.65 1022.01 1022.34 1022.68 1023.03 1023.41 1023.79 1024.15 1024.47 1024.71 1024.85 1024.88 1024.81 1024.64 1024.42 1024.17 1023.93 1023.72 1023.55 1023.40
1006.43 1006.78 1007.25 1007.88 1008.69 1009.64 1010.68 1011.76 1012.81 1013.77 1014.62 1015.33 1015.93 1016.46 1016.96 1017.46 1017.98 1018.53 1019.11 1019.68 1020.21 1020.70 1021.12 1021.49 1021.82 1022.15 1022.49 1022.86 1023.27 1023.71 1024.14 1024.53 1024.84 1025.04 1025.10 1025.04 1024.87 1024.62 1024.34 1024.06 1023.80 1023.58 1023.39
1006.27 1006.61 1007.04 1007.62 1008.36 1009.25 1010.24 1011.27 1012.30 1013.25 1014.09 1014.83 1015.46 1016.03 1016.57 1017.12 1017.69 1018.29 1018.90 1019.50 1020.05 1020.55 1020.97 1021.33 1021.65 1021.97 1022.31 1022.69 1023.13 1023.60 1024.07 1024.51 1024.87 1025.11 1025.22 1025.18 1025.02 1024.78 1024.48 1024.16 1023.86 1023.60 1023.37
Thickness
5740 5741 5741 5738 5736 5734 5733 5732 5730 5729 5728 5727 5726 5724 5723 5722 5721 5721 5720 5719 5718 5717 5716 5715 5714 5713 5712 5711 5710 5709 5708 5707 5706 5705 5705 5705 5704 5703 5702 5702 5701 5701 5701
5744 5741 5740 5737 5735 5733 5731 5729 5728 5726 5725 5724 5722 5721 5720 5719 5717 5716 5715 5714 5713 5712 5711 5709 5708 5707 5705 5704 5703 5702 5701 5700 5699 5698 5697 5697 5697 5697 5696 5695 5695 5694 5694
5743 5741 5738 5736 5733 5731 5729 5727 5725 5724 5722 5721 5719 5718 5716 5715 5713 5712 5710 5709 5707 5706 5705 5703 5702 5701 5699 5698 5697 5696 5695 5694 5692 5691 5690 5690 5690 5690 5689 5688 5688 5687 5687
5742 5739 5737 5734 5731 5729 5727 5725 5723 5721 5719 5717 5716 5714 5712 5711 5709 5708 5706 5704 5702 5700 5699 5697 5696 5695 5694 5692 5691 5690 5689 5687 5685 5684 5683 5683 5683 5684 5683 5682 5681 5680 5680
5740 5738 5735 5732 5730 5727 5725 5723 5721 5719 5716 5714 5712 5710 5708 5707 5705 5703 5701 5699 5697 5695 5694 5692 5691 5689 5688 5687 5685 5684 5682 5681 5678 5677 5676 5676 5676 5677 5676 5675 5674 5674 5673
5738 5736 5733 5731 5728 5726 5723 5720 5718 5716 5713 5711 5709 5706 5704 5702 5700 5697 5695 5693 5691 5690 5688 5687 5685 5684 5682 5681 5680 5678 5676 5674 5672 5671 5670 5669 5669 5670 5670 5668 5667 5667 5666
5736 5734 5731 5729 5726 5724 5721 5718 5716 5713 5710 5707 5705 5702 5700 5697 5695 5692 5690 5688 5686 5684 5683 5681 5680 5678 5676 5675 5674 5672 5670 5668 5666 5664 5663 5663 5663 5663 5662 5661 5660 5660 5659
5736 5732 5730 5727 5724 5721 5719 5716 5713 5710 5707 5704 5701 5698 5696 5693 5690 5688 5685 5683 5681 5679 5678 5676 5674 5672 5671 5670 5668 5666 5664 5662 5659 5658 5657 5656 5656 5656 5655 5654 5653 5652 5652
5733 5730 5728 5725 5722 5719 5716 5713 5710 5707 5704 5700 5697 5694 5691 5688 5686 5683 5681 5678 5676 5674 5673 5671 5669 5667 5665 5664 5662 5661 5658 5656 5654 5652 5650 5649 5649 5649 5649 5647 5646 5645 5645
5729 5728 5725 5723 5720 5717 5713 5710 5707 5704 5701 5697 5694 5690 5687 5684 5682 5679 5676 5674 5672 5670 5668 5666 5664 5662 5660 5658 5657 5655 5653 5651 5649 5646 5644 5643 5642 5642 5641 5640 5639 5638 5638
5725 5725 5723 5721 5718 5714 5711 5707 5704 5701 5697 5694 5690 5686 5683 5680 5677 5674 5671 5669 5667 5665 5663 5660 5658 5656 5654 5653 5651 5649 5647 5645 5643 5640 5638 5636 5635 5635 5634 5633 5632 5631 5630
5724 5723 5722 5719 5716 5712 5709 5705 5701 5698 5694 5690 5687 5683 5679 5676 5672 5670 5667 5664 5662 5660 5657 5655 5653 5650 5648 5647 5645 5643 5640 5638 5636 5634 5631 5629 5628 5627 5626 5625 5624 5623 5622
5728 5724 5721 5718 5714 5710 5707 5703 5699 5695 5691 5687 5683 5679 5675 5671 5668 5665 5662 5660 5657 5655 5652 5649 5647 5645 5642 5640 5638 5636 5633 5631 5629 5626 5624 5622 5621 5619 5618 5617 5615 5614 5612
5726 5724 5721 5718 5713 5709 5705 5701 5696 5692 5688 5684 5680 5676 5671 5667 5664 5660 5657 5655 5652 5649 5646 5644 5641 5639 5636 5633 5631 5629 5626 5624 5622 5619 5617 5614 5612 5611 5609 5607 5605 5604 5602
5727 5725 5722 5718 5713 5708 5703 5699 5694 5690 5685 5681 5677 5672 5668 5664 5660 5656 5653 5649 5647 5644 5641 5638 5635 5632 5629 5627 5624 5621 5619 5617 5614 5611 5609 5606 5604 5601 5599 5597 5595 5593 5591
5728 5726 5723 5719 5714 5708 5703 5698 5693 5688 5683 5678 5674 5669 5665 5661 5656 5652 5648 5644 5641 5638 5635 5632 5628 5625 5622 5619 5616 5614 5611 5608 5606 5603 5600 5598 5595 5592 5589 5586 5584 5582 5581
5731 5728 5724 5720 5714 5709 5703 5697 5692 5686 5681 5675 5670 5666 5661 5657 5652 5648 5643 5639 5636 5632 5629 5625 5621 5618 5615 5612 5608 5606 5603 5600 5597 5595 5592 5588 5585 5582 5579 5576 5573 5571 5569
5732 5728 5724 5720 5713 5708 5703 5696 5690 5684 5678 5673 5668 5663 5658 5653 5648 5643 5638 5634 5630 5626 5622 5618 5614 5610 5606 5602 5600 5597 5594 5592 5589 5586 5583 5579 5575 5571 5568 5565 5562 5559 5557
5734 5729 5723 5719 5713 5706 5700 5694 5688 5681 5675 5670 5664 5659 5654 5648 5643 5639 5633 5629 5624 5620 5615 5611 5606 5602 5597 5594 5591 5588 5585 5582 5579 5576 5573 5569 5565 5561 5557 5554 5550 5548 5546
5734 5730 5724 5718 5711 5703 5695 5688 5682 5676 5671 5666 5660 5655 5649 5644 5639 5633 5628 5623 5618 5613 5608 5603 5598 5593 5589 5585 5582 5578 5575 5572 5569 5566 5562 5558 5554 5550 5547 5543 5540 5537 5534
5730 5726 5721 5714 5707 5699 5691 5684 5678 5672 5666 5661 5656 5650 5645 5639 5634 5628 5622 5616 5611 5606 5601 5596 5591 5585 5580 5576 5571 5567 5564 5562 5559 5555 5551 5548 5544 5540 5536 5532 5529 5526 5524
5727 5724 5718 5712 5705 5699 5692 5685 5677 5669 5662 5656 5651 5645 5639 5634 5629 5623 5617 5611 5605 5599 5593 5588 5583 5577 5571 5567 5561 5555 5550 5549 5547 5545 5540 5536 5533 5529 5525 5522 5518 5516 5513
5721 5719 5716 5709 5703 5696 5688 5679 5669 5660 5653 5648 5643 5638 5634 5629 5623 5618 5612 5605 5599 5593 5587 5581 5576 5570 5563 5557 5553 5547 5540 5537 5533 5532 5529 5526 5522 5518 5514 5511 5508 5506 5503
5717 5714 5711 5704 5698 5691 5683 5675 5667 5659 5652 5646 5640 5633 5628 5623 5618 5612 5606 5600 5593 5587 5581 5576 5570 5564 5557 5550 5544 5540 5534 5529 5523 5520 5518 5515 5512 5508 5505 5502 5499 5496 5494
5709 5706 5702 5697 5691 5685 5678 5672 5664 5656 5648 5640 5634 5627 5621 5616 5611 5606 5600 5594 5587 5581 5575 5570 5563 5558 5552 5545 5538 5532 5526 5519 5514 5508 5505 5504 5501 5499 5496 5493 5490 5487 5484
5700 5697 5693 5689 5684 5678 5672 5666 5659 5651 5642 5634 5627 5621 5615 5609 5604 5599 5593 5588 5582 5576 5569 5563 5558 5551 5545 5539 5532 5526 5520 5513 5506 5499 5494 5492 5490 5490 5487 5484 5481 5478 5475